TimePST,TemperatureF,Dew PointF,Humidity,Sea Level PressureIn,VisibilityMPH,Wind Direction,Wind SpeedMPH,Gust SpeedMPH,PrecipitationIn,Events,Conditions,WindDirDegrees,DateUTC
12:53 AM,39.9,39.0,97,29.89,10.0,Calm,Calm,-,0.01,Rain,Light Rain,0,2013-03-07 08:53:00
1:53 AM,39.9,39.0,97,29.92,10.0,Calm,Calm,-,0.00,Rain,Light Rain,0,2013-03-07 09:53:00
2:53 AM,41.0,37.9,89,29.93,10.0,SW,4.6,-,0.01,Rain,Light Rain,230,2013-03-07 10:53:00
3:53 AM,39.9,39.0,97,29.94,10.0,Calm,Calm,-,0.00,Rain,Light Rain,0,2013-03-07 11:53:00
4:53 AM,39.0,37.0,93,29.95,7.0,Calm,Calm,-,0.01,,Overcast,0,2013-03-07 12:53:00
5:14 AM,37.9,36.0,93,29.95,1.8,Calm,Calm,-,N/A,,Mostly Cloudy,0,2013-03-07 13:14:00
5:28 AM,37.9,36.0,93,29.95,2.0,Calm,Calm,-,N/A,,Overcast,0,2013-03-07 13:28:00
5:46 AM,37.0,36.0,96,29.95,1.8,Calm,Calm,-,N/A,,Overcast,0,2013-03-07 13:46:00
5:50 AM,37.4,35.6,93,29.96,3.0,Calm,Calm,-,N/A,,Overcast,0,2013-03-07 13:50:00
5:53 AM,37.0,37.0,100,29.96,4.0,SSW,3.5,-,N/A,,Overcast,200,2013-03-07 13:53:00
6:53 AM,37.9,36.0,93,29.98,10.0,SW,5.8,-,N/A,,Overcast,230,2013-03-07 14:53:00
7:53 AM,39.9,37.9,93,29.99,10.0,Calm,Calm,-,N/A,,Overcast,0,2013-03-07 15:53:00
8:53 AM,42.1,39.0,89,30.02,10.0,Calm,Calm,-,N/A,,Overcast,0,2013-03-07 16:53:00
9:53 AM,44.1,39.0,82,30.04,10.0,Calm,Calm,-,N/A,,Overcast,0,2013-03-07 17:53:00
10:53 AM,46.0,39.9,79,30.04,10.0,East,4.6,-,N/A,,Overcast,80,2013-03-07 18:53:00
11:53 AM,48.0,41.0,77,30.06,10.0,East,6.9,-,N/A,,Scattered Clouds,90,2013-03-07 19:53:00
12:53 PM,48.0,39.9,74,30.06,10.0,Variable,3.5,-,N/A,,Scattered Clouds,0,2013-03-07 20:53:00
1:53 PM,46.0,39.9,79,30.07,10.0,NNE,3.5,-,N/A,,Mostly Cloudy,30,2013-03-07 21:53:00
2:53 PM,46.9,41.0,80,30.08,10.0,East,3.5,-,N/A,,Mostly Cloudy,80,2013-03-07 22:53:00
3:53 PM,46.0,41.0,83,30.08,10.0,NNE,3.5,-,N/A,,Mostly Cloudy,30,2013-03-07 23:53:00
4:53 PM,46.9,39.9,77,30.08,10.0,Calm,Calm,-,N/A,,Overcast,0,2013-03-08 00:53:00
5:53 PM,45.0,41.0,86,30.08,10.0,East,4.6,-,N/A,,Overcast,100,2013-03-08 01:53:00
6:53 PM,43.0,39.9,89,30.09,10.0,Calm,Calm,-,N/A,,Overcast,0,2013-03-08 02:53:00
7:53 PM,39.9,37.9,93,30.10,10.0,WSW,3.5,-,N/A,,Overcast,250,2013-03-08 03:53:00
8:20 PM,41.0,37.9,89,30.09,10.0,WSW,4.6,-,N/A,,Mostly Cloudy,250,2013-03-08 04:20:00
8:28 PM,41.0,39.0,93,30.09,10.0,WSW,3.5,-,N/A,,Mostly Cloudy,240,2013-03-08 04:28:00
8:53 PM,41.0,39.0,93,30.11,10.0,Calm,Calm,-,N/A,,Overcast,0,2013-03-08 04:53:00
9:53 PM,37.9,36.0,93,30.11,10.0,South,3.5,-,N/A,,Scattered Clouds,170,2013-03-08 05:53:00
10:30 PM,37.9,36.0,93,30.11,10.0,SW,4.6,-,N/A,,Mostly Cloudy,220,2013-03-08 06:30:00
10:51 PM,37.4,35.6,93,30.10,10.0,SW,3.5,-,N/A,,Mostly Cloudy,230,2013-03-08 06:51:00
10:53 PM,37.0,35.1,93,30.11,10.0,SW,3.5,-,N/A,,Mostly Cloudy,230,2013-03-08 06:53:00
11:53 PM,35.1,34.0,96,30.11,10.0,WSW,3.5,-,N/A,,Overcast,240,2013-03-08 07:53:00